OBJECT F, 67679

Orbit data source: Space-Track

You're viewing an Uncataloged Satellite

Recently launched and/or uncataloged satellites may have evolving metadata. Metadata may include but not limited to: Owner, Maufacturer, Bus, Motor, and Mission.

OBJECT F, 67679 is a satellite owned by VVKO VKS (CIS) in SSO that was launched on Thu, 05 Feb 2026 UTC via a SOYUZ-2-1B launch vehicle from the Plesetsk Missile And Space Complex (PKMTR). Unknown objects in Earth's orbit typically refer to objects detected orbiting the Earth but have not yet been identified or cataloged. These objects could be anything from previously untracked satellites, spent rocket stages, debris from satellite collisions, or even natural meteoroids temporarily captured by Earth's gravity.

Loading next visibility...
Identifier
67679, 2026-023F
Orbit
SSO
Country
Flag of CISCIS
Related business
Manufacturer
Unknown (RU)
Mission
Spacecraft
Bus & Motor
UNK, Unknown motor
Mass
~500 kg wet, ~500 kg dry
Launch date (UTC)
2026-02-05 (1 month ago)
Launch vehicle
SOYUZ-2-1B
Launch site
Plesetsk Missile And Space Complex (PKMTR)
Object type
Unknown
Shape & HBR
Unknown
Radar Cross Section
RCS unknown

Expand to show TLE details & history
Last TLE update: 15 hours ago

TLE from 15 hours ago
0 OBJECT F
1 67679U 26023F   26071.73770005  .00012942  00000-0  54300-3 0  9996
2 67679  96.6319 146.8259 0022328 111.4965 248.8658 15.23353378  5309
Epoch: 2026-03-12T17:42Z
TLE epoch observation values (Epoch: 2026-03-12T17:42:17.284Z)
Latitude
0.00003°
Longitude
70.87059°
Altitude
504.415 km
Speed
7.609 km/s
True Right ascension
09h 47m 18s
True Declination
0° 00' 00"
Sunlit
Object was in full shadow at epoch
Visualization orbit readout
Latitude
Unknown
Longitude
Unknown
Altitude
Unknown
Speed
Unknown
Apparent Right ascension
Unknown
Apparent Declination
Unknown
Sunlit
N/A
Visualization observer readout
Local Sidereal Time
13:00:31
Azimuth
Unknown
Elevation
Unknown
Doppler factor
Unknown
Orbital elements
Apogee altitude
508.005 km
Perigee altitude
477.323 km
Semi-major axis
6,870.801 km
Eccentricity
0.00223
Inclination
96.6319°
RAAN
146.8259°
Arg. of periapsis
111.4965°
True anomaly
248.62739°
Mean anomaly
248.8658°
Eccentric anomaly
248.74657°
Mean motion
3.81094 °/min
Orbital period
94.46 mins
BSTAR
0.000543
Loading maneuver chart data...
Computing Atmospheric mass density...
Loading historical data...
Loading historical data...
Loading historical data...
Loading historical data...
Loading historical data...
Loading historical data...
Loading historical data...

Documentation

Showing up to 5 results
|